Location: Arlington
(40.6323°N, 74.1651°W)
Time: 08:06:27
(UTC+00:00)

YAOGAN 1 - Pass Details

Date: 22 November 2019
Orbit: 619 x 621 km, 98.0° (Epoch: 11 December)

Event Time Altitude Azimuth Distance (km) Brightness Sun altitude
Rises 23:38:24 0° 173° (S) 2,882 6.0 -23.3°
Reaches altitude 10° 23:40:36 10° 176° (S) 1,980 5.2 -23.7°
Maximum altitude 23:44:53 65° 259° (WSW) 684 2.9 -24.6°
Drops below altitude 10° 23:49:11 10° 341° (NNW) 1,994 5.3 -25.4°
Sets 23:51:24 0° 345° (NNW) 2,905 6.1 -25.8°
